Sturgis, MI

9:32 PM EST on February 25, 2017 (GMT -0500)
Kirsch Municipal

Weather History for KIRS - January, 2013

Change the Weather History Date:

Sunday, January 6, 2013

  Actual Average (KHAI) Record (KHAI)
Temperature  
Mean Temperature 30 °F -  
Max Temperature 33 °F 31 °F 50 °F (1987)
Min Temperature 28 °F 15 °F -13 °F (2014)
Degree Days  
Heating Degree Days 34    
Moisture  
Dew Point 28 °F    
Average Humidity 85    
Maximum Humidity 100    
Minimum Humidity 75    
Precipitation  
Precipitation 0.00 in - - ()
Sea Level Pressure  
Sea Level Pressure 30.03 in    
Wind  
Wind Speed 12 mph (West)    
Max Wind Speed 16 mph    
Max Gust Speed 26 mph    
Visibility 9 miles    
Events Snow    
Averages and records for this station are not official NWS values.
T = Trace of Precipitation, MM = Missing Value Source: NWS Daily Summary

Daily Weather History Graph

Daily Weather History Graph

Search for Another Location

Airport or City:

Trip Planner

Search our weather history database for the weather conditions in past years. The results will help you decide how hot, cold, wet, or windy it might be!

Date:

Astronomy

Jan. 06, 2013 Rise Set
Actual Time 8:09 AM EST 5:26 PM EST
Civil Twilight 7:37 AM EST 5:57 PM EST
Nautical Twilight 7:03 AM EST 6:32 PM EST
Astronomical Twilight 6:29 AM EST 7:06 PM EST
Moon 2:20 AM EST (1/6) 12:55 PM EST (1/6)
Length of Visible Light 10h 19m
Length of Day
9h 17m
Waning Crescent, 33% of the Moon is Illuminated
Jan 6
Waning Crescent
Jan 11
New
Jan 18
First Quarter
Jan 26
Full
Feb 3
Last Quarter

Hourly Weather History & Observations

Time (EST) Temp. Windchill Dew Point Humidity Pressure Visibility Wind Dir Wind Speed Gust Speed Precip Events Conditions
12:14 AM 33.8 °F 23.5 °F 28.4 °F 81% 29.99 in 10.0 mi SW 16.1 mph 21.9 mph N/A   Overcast
12:35 AM 33.8 °F 23.5 °F 28.4 °F 81% 29.99 in 10.0 mi SW 16.1 mph - N/A   Overcast
12:54 AM 33.8 °F 23.5 °F 28.4 °F 81% 29.98 in 7.0 mi SW 16.1 mph - N/A   Overcast
1:15 AM 32.0 °F 21.6 °F 28.4 °F 87% 29.97 in 7.0 mi SW 15.0 mph 19.6 mph N/A   Overcast
1:35 AM 32.0 °F 22.1 °F 28.4 °F 87% 29.97 in 10.0 mi SW 13.8 mph - N/A   Overcast
1:54 AM 32.0 °F 21.2 °F 28.4 °F 87% 29.96 in 7.0 mi SW 16.1 mph - N/A   Overcast
2:15 AM 32.0 °F 22.1 °F 28.4 °F 87% 29.95 in 7.0 mi SW 13.8 mph - N/A   Overcast
2:35 AM 33.8 °F 24.8 °F 30.2 °F 87% 29.95 in 10.0 mi SW 12.7 mph - N/A   Mostly Cloudy
2:55 AM 33.8 °F 24.8 °F 30.2 °F 87% 29.95 in 10.0 mi WSW 12.7 mph - N/A   Overcast
3:15 AM 33.8 °F 25.3 °F 30.2 °F 87% 29.95 in 10.0 mi SW 11.5 mph - N/A   Overcast
3:34 AM 33.8 °F 25.3 °F 30.2 °F 87% 29.94 in 10.0 mi SW 11.5 mph - N/A   Overcast
3:55 AM 33.8 °F 24.3 °F 30.2 °F 87% 29.93 in 10.0 mi SW 13.8 mph - N/A   Mostly Cloudy
4:14 AM 33.8 °F 24.3 °F 30.2 °F 87% 29.93 in 10.0 mi SW 13.8 mph - N/A   Mostly Cloudy
4:35 AM 33.8 °F 24.8 °F 30.2 °F 87% 29.92 in 10.0 mi SW 12.7 mph - N/A   Mostly Cloudy
4:54 AM 33.8 °F 25.3 °F 30.2 °F 87% 29.91 in 10.0 mi SW 11.5 mph - N/A   Overcast
5:15 AM 33.8 °F 24.3 °F 30.2 °F 87% 29.91 in 10.0 mi SW 13.8 mph - N/A   Overcast
5:35 AM 33.8 °F 24.8 °F 30.2 °F 87% 29.91 in 10.0 mi SW 12.7 mph - N/A   Overcast
5:55 AM 33.8 °F 25.3 °F 30.2 °F 87% 29.90 in 10.0 mi SW 11.5 mph - N/A   Overcast
6:15 AM 33.8 °F 25.3 °F 30.2 °F 87% 29.90 in 10.0 mi SW 11.5 mph - N/A   Overcast
6:35 AM 33.8 °F 24.8 °F 30.2 °F 87% 29.90 in 10.0 mi SW 12.7 mph - N/A   Overcast
6:55 AM 33.8 °F 25.3 °F 30.2 °F 87% 29.90 in 10.0 mi SW 11.5 mph - N/A   Overcast
7:15 AM 33.8 °F 25.8 °F 30.2 °F 87% 29.90 in 10.0 mi SW 10.4 mph - N/A   Overcast
7:35 AM 33.8 °F 25.8 °F 30.2 °F 87% 29.90 in 10.0 mi SW 10.4 mph - N/A   Overcast
7:55 AM 33.8 °F 25.8 °F 30.2 °F 87% 29.90 in 10.0 mi SW 10.4 mph - N/A   Overcast
8:15 AM 33.8 °F 26.4 °F 30.2 °F 87% 29.90 in 10.0 mi WSW 9.2 mph - N/A   Overcast
8:34 AM 33.8 °F 25.3 °F 30.2 °F 87% 29.91 in 10.0 mi WSW 11.5 mph - N/A   Overcast
8:55 AM 33.8 °F 25.8 °F 30.2 °F 87% 29.91 in 5.0 mi WSW 10.4 mph - N/A   Overcast
9:35 AM 33.8 °F 25.3 °F 30.2 °F 87% 29.91 in 10.0 mi WSW 11.5 mph 18.4 mph N/A   Overcast
9:54 AM 33.8 °F 24.8 °F 30.2 °F 87% 29.92 in 10.0 mi West 12.7 mph - N/A   Overcast
10:15 AM 33.8 °F 24.8 °F 30.2 °F 87% 29.93 in 10.0 mi WSW 12.7 mph 20.7 mph N/A   Overcast
10:35 AM 33.8 °F 24.8 °F 28.4 °F 81% 29.95 in 10.0 mi West 12.7 mph 26.5 mph N/A   Overcast
10:55 AM 32.0 °F 22.1 °F 26.6 °F 80% 29.96 in 10.0 mi West 13.8 mph 21.9 mph N/A   Overcast
11:15 AM 30.2 °F 18.9 °F 24.8 °F 80% 29.96 in 10.0 mi WSW 16.1 mph 21.9 mph N/A   Mostly Cloudy
11:34 AM 30.2 °F 20.2 °F 26.6 °F 86% 29.97 in 10.0 mi West 12.7 mph 20.7 mph N/A   Mostly Cloudy
11:55 AM 30.2 °F 19.8 °F 24.8 °F 80% 29.97 in 10.0 mi West 13.8 mph 19.6 mph N/A   Mostly Cloudy
12:14 PM 28.4 °F 17.5 °F 24.8 °F 86% 29.97 in 10.0 mi West 13.8 mph - N/A   Scattered Clouds
12:35 PM 28.4 °F 18.0 °F 24.8 °F 86% 29.97 in 10.0 mi West 12.7 mph - N/A   Scattered Clouds
12:55 PM 28.4 °F 18.5 °F 24.8 °F 86% 29.97 in 10.0 mi West 11.5 mph - N/A   Scattered Clouds
1:14 PM 28.4 °F 19.1 °F 24.8 °F 86% 29.98 in 10.0 mi West 10.4 mph - N/A   Scattered Clouds
1:35 PM 28.4 °F 19.1 °F 24.8 °F 86% 29.98 in 7.0 mi West 10.4 mph - N/A   Scattered Clouds
1:54 PM 28.4 °F 19.7 °F 24.8 °F 86% 29.99 in 7.0 mi West 9.2 mph - N/A   Scattered Clouds
2:15 PM 28.4 °F 20.4 °F 24.8 °F 86% 29.99 in 7.0 mi West 8.1 mph - N/A   Clear
2:34 PM 28.4 °F 19.7 °F 24.8 °F 86% 30.00 in 7.0 mi West 9.2 mph - N/A   Scattered Clouds
2:55 PM 28.4 °F 19.7 °F 24.8 °F 86% 30.01 in 5.0 mi West 9.2 mph - N/A   Scattered Clouds
3:14 PM 30.2 °F 21.3 °F 24.8 °F 80% 30.03 in 5.0 mi West 10.4 mph - N/A   Haze
3:35 PM 30.2 °F 21.9 °F 26.6 °F 86% 30.04 in 5.0 mi West 9.2 mph - N/A   Overcast
3:55 PM 30.2 °F 21.9 °F 26.6 °F 86% 30.05 in 5.0 mi West 9.2 mph - N/A   Mostly Cloudy
4:15 PM 30.2 °F 21.9 °F 26.6 °F 86% 30.06 in 7.0 mi West 9.2 mph - N/A   Scattered Clouds
4:35 PM 30.2 °F 21.9 °F 26.6 °F 86% 30.07 in 3.0 mi West 9.2 mph - N/A   Mostly Cloudy
4:55 PM 30.2 °F 23.4 °F 28.4 °F 93% 30.08 in 3.0 mi West 6.9 mph - N/A Snow Light Snow
5:15 PM 30.2 °F 23.4 °F 28.4 °F 93% 30.09 in 7.0 mi West 6.9 mph - N/A   Overcast
5:34 PM 30.2 °F 23.4 °F 28.4 °F 93% 30.10 in 7.0 mi West 6.9 mph - N/A   Overcast
5:55 PM 30.2 °F 24.3 °F 28.4 °F 93% 30.12 in 7.0 mi WNW 5.8 mph - N/A   Overcast
6:14 PM 30.2 °F 25.4 °F 30.2 °F 100% 30.13 in 10.0 mi WNW 4.6 mph - N/A   Overcast
6:35 PM 32.0 °F 26.4 °F 30.2 °F 93% 30.14 in 10.0 mi NW 5.8 mph - N/A   Overcast
6:54 PM 32.0 °F 24.2 °F 28.4 °F 87% 30.16 in 10.0 mi NW 9.2 mph - N/A   Overcast
7:15 PM 33.8 °F 26.4 °F 28.4 °F 81% 30.17 in 10.0 mi NW 9.2 mph - N/A   Overcast
7:34 PM 33.8 °F 27.7 °F 28.4 °F 81% 30.18 in 10.0 mi NW 6.9 mph - N/A   Overcast
7:55 PM 33.8 °F 28.6 °F 28.4 °F 81% 30.19 in 10.0 mi NW 5.8 mph - N/A   Overcast
8:15 PM 33.8 °F 27.7 °F 26.6 °F 75% 30.21 in 10.0 mi NW 6.9 mph - N/A   Overcast
8:34 PM 33.8 °F 27.7 °F 26.6 °F 75% 30.22 in 10.0 mi NW 6.9 mph - N/A   Overcast
8:55 PM 33.8 °F 27.7 °F 26.6 °F 75% 30.23 in 10.0 mi NNW 6.9 mph - N/A   Overcast
9:15 PM 32.0 °F 25.6 °F 26.6 °F 80% 30.23 in 10.0 mi NNW 6.9 mph - N/A   Overcast
9:35 PM 32.0 °F 27.5 °F 26.6 °F 80% 30.24 in 10.0 mi NW 4.6 mph - N/A   Overcast
10:15 PM 32.0 °F 28.7 °F 26.6 °F 80% 30.25 in 10.0 mi NW 3.5 mph - N/A   Overcast
10:34 PM 32.0 °F 26.4 °F 26.6 °F 80% 30.26 in 10.0 mi NW 5.8 mph - N/A   Overcast
10:55 PM 32.0 °F 24.8 °F 26.6 °F 80% 30.26 in 10.0 mi NW 8.1 mph - N/A   Overcast
11:14 PM 32.0 °F 28.7 °F 24.8 °F 75% 30.27 in 10.0 mi NW 3.5 mph - N/A   Overcast
11:35 PM 32.0 °F 28.7 °F 24.8 °F 75% 30.27 in 10.0 mi NW 3.5 mph - N/A   Overcast
11:55 PM 32.0 °F - 24.8 °F 75% 30.28 in 10.0 mi Calm Calm - N/A   Overcast